Wind_Speed
8 7 6 5 4 3 3 2 1 1 1 1 1 1 1 0 1 3 4 5 6 7 8 10 10 11 12 13 14 14 15 16 17 18 19 20 21 22 22 23 23 24 24 24 25 25 27 27 28 28 28 30 31 30 32 32 33 35 35 37 38 37 36 37 43 52 57 55 53 52 51 51 53 53 53 52 51 49 48 47 44 44 44 42 37
8 7 6 5 5 4 3 3 2 2 2 3 3 2 1 1 2 4 5 6 7 7 8 9 10 11 12 13 14 15 16 17 18 19 20 21 21 22 23 24 25 26 26 26 27 27 29 29 29 29 30 31 31 31 32 32 32 34 34 34 36 37 36 37 40 47 54 56 54 53 53 52 54 54 52 51 51 51 51 50 48 45 43 40 39
8 7 6 6 5 5 4 4 4 4 4 4 3 2 1 2 3 4 5 5 6 7 8 10 11 13 14 15 17 17 18 20 21 22 23 23 24 24 25 26 27 28 29 29 30 30 32 32 32 32 33 34 34 33 33 33 33 33 34 33 34 36 35 35 37 42 49 54 54 53 53 52 52 52 51 51 51 51 52 52 51 47 42 40 39
8 8 7 6 6 5 5 4 4 4 4 4 3 2 1 2 2 3 4 5 7 8 10 13 14 16 17 17 19 20 21 22 22 24 25 26 27 27 28 29 29 31 32 32 33 33 34 35 35 35 36 37 37 36 36 36 36 36 36 36 35 36 36 34 35 37 42 48 51 52 51 50 51 51 49 50 51 51 52 54 52 48 43 39 37
8 8 7 6 6 5 5 5 5 5 4 4 3 2 1 0 1 3 5 7 9 12 14 16 17 18 19 19 20 21 22 24 24 25 27 28 29 29 30 31 31 32 33 33 34 35 36 36 37 36 37 38 39 39 38 39 39 40 40 40 39 39 39 37 35 35 38 44 48 50 50 49 50 50 48 49 50 51 52 54 53 49 44 39 37
8 8 7 7 6 6 6 6 6 5 4 4 3 3 1 1 3 6 8 10 13 14 16 18 19 20 20 21 21 22 23 25 26 27 27 28 29 30 31 31 32 33 34 34 35 36 37 38 38 38 38 39 39 39 39 39 39 40 41 41 42 42 42 41 38 36 37 41 46 49 50 50 49 50 49 48 50 51 52 54 53 49 44 41 38
9 9 8 8 8 8 8 7 6 5 4 3 2 1 1 4 6 9 11 13 15 17 18 20 20 20 21 21 22 22 23 24 25 26 27 29 30 31 31 32 33 34 34 35 36 37 38 38 39 39 39 39 39 39 39 39 39 40 41 41 42 43 44 44 41 38 38 41 44 47 49 50 50 50 49 49 50 51 51 52 52 47 43 41 39
11 11 10 10 9 9 8 6 5 4 2 1 1 2 4 7 9 12 14 16 18 19 20 20 19 19 20 21 21 22 23 24 26 27 28 30 31 32 33 34 35 36 36 37 38 38 39 40 40 41 40 39 39 39 38 38 39 41 41 40 41 43 45 45 43 40 39 41 44 47 48 50 51 50 49 50 51 51 50 50 48 45 43 42 41
13 12 11 10 9 8 7 5 4 2 1 3 4 6 7 10 12 14 16 17 18 19 19 19 19 19 20 20 21 22 23 25 26 28 30 32 33 34 35 36 38 39 40 40 41 41 41 42 43 43 42 42 41 40 39 38 38 40 40 40 40 42 44 45 44 42 40 41 44 46 48 50 51 50 50 50 51 51 49 47 45 44 43 43 43
13 12 10 9 8 7 5 3 1 1 3 5 7 9 10 12 13 15 16 16 17 17 17 18 19 20 21 22 23 23 25 26 28 29 31 33 35 36 38 39 40 42 43 44 45 45 45 46 46 46 46 46 45 44 43 41 40 40 40 39 39 40 42 44 44 43 41 41 44 46 48 51 52 50 50 51 51 49 48 45 44 44 43 43 43
12 11 10 9 7 5 4 2 2 3 6 8 9 10 11 12 13 14 15 16 16 17 18 20 21 23 24 25 26 26 27 28 29 31 32 34 36 38 40 42 43 44 46 47 48 49 50 50 51 51 51 51 50 49 48 46 45 43 41 40 38 38 39 41 43 43 41 40 43 45 47 51 53 51 51 51 50 49 48 45 44 44 43 43 43
11 10 9 8 6 5 3 3 4 5 7 9 10 11 12 13 14 15 16 17 18 19 21 22 24 25 26 27 28 29 29 30 31 32 34 35 38 40 42 44 46 47 48 50 51 53 54 55 55 55 56 55 55 54 53 52 51 49 47 45 43 41 39 39 40 41 40 40 42 45 47 50 52 51 50 50 49 49 48 46 45 44 44 44 44
11 9 8 6 6 4 3 3 4 6 8 9 11 12 13 15 16 17 18 19 21 22 23 24 26 27 28 30 30 31 32 33 34 35 37 39 40 42 45 46 48 50 51 52 54 55 56 57 58 59 59 58 58 57 57 56 56 54 53 51 49 47 44 41 39 38 38 38 41 45 46 47 50 51 49 49 48 48 48 47 45 45 44 45 44
10 8 7 6 5 4 3 4 5 7 9 10 12 13 15 16 18 19 20 21 23 24 25 26 27 28 30 32 33 34 34 35 37 38 39 41 42 44 46 48 50 51 53 54 55 56 57 58 59 60 61 60 59 58 57 57 57 56 56 55 54 52 50 47 44 40 38 38 39 42 43 42 44 46 46 47 46 46 47 47 45 45 44 43 42
9 8 7 6 5 4 3 4 6 8 10 11 13 15 16 18 19 21 22 23 25 26 27 28 29 30 32 33 35 36 36 37 38 39 41 42 44 45 47 49 50 52 53 54 54 55 56 56 58 59 60 61 60 58 57 56 56 56 57 57 57 55 54 52 48 43 42 40 39 39 40 40 40 40 41 43 43 43 44 44 43 42 41 41 40
9 7 6 5 4 3 4 6 8 9 11 13 15 16 18 19 21 22 23 24 26 27 28 30 31 32 33 35 37 38 38 38 39 40 41 43 44 46 48 49 51 52 53 54 54 55 56 56 57 58 59 61 60 58 57 56 55 56 57 58 58 57 57 56 51 46 45 44 41 39 39 38 38 38 38 40 42 42 42 42 41 39 39 40 40
8 6 5 4 4 4 6 8 9 11 13 14 16 17 19 20 22 23 25 26 27 28 30 31 32 34 35 36 38 39 40 40 40 41 42 43 45 47 48 50 52 53 54 55 56 57 57 57 58 59 60 61 60 59 58 56 55 55 56 57 57 58 59 58 53 49 47 45 43 41 39 38 37 37 36 36 39 40 38 38 40 40 39 40 40
7 5 4 4 4 6 7 9 11 12 14 15 16 18 19 21 22 24 26 27 28 30 31 32 33 34 35 37 38 40 41 41 42 42 43 44 45 47 49 51 52 54 55 56 57 58 58 58 58 59 60 61 60 60 59 57 54 54 54 54 55 58 60 57 53 50 48 46 45 43 41 40 38 36 35 35 37 37 36 36 38 39 39 40 40
6 4 3 4 5 7 8 10 11 12 14 15 17 19 20 22 23 24 26 28 29 31 32 34 35 35 36 37 38 40 42 42 43 44 44 44 45 47 49 51 53 55 56 57 59 60 60 60 59 59 60 60 60 59 58 56 53 51 50 49 51 56 58 55 52 50 49 48 47 44 42 41 39 38 37 36 36 37 38 37 36 37 40 42 39
4 3 3 4 6 8 9 10 12 13 15 16 18 20 21 22 24 25 27 28 30 31 32 34 36 36 37 38 39 40 42 44 45 46 46 46 46 48 49 52 54 56 57 59 61 62 62 62 62 61 61 60 59 58 57 55 53 49 46 46 48 52 53 51 50 50 49 49 48 46 44 43 41 39 39 38 37 37 39 39 37 36 39 41 40
3 3 4 5 7 9 10 11 13 14 16 17 18 20 22 23 25 26 27 28 30 31 33 34 36 38 39 40 41 42 44 46 47 48 49 49 49 50 51 52 54 55 56 58 61 62 63 63 63 63 62 61 60 59 58 57 54 48 44 44 46 48 48 48 48 49 50 50 49 48 46 44 41 40 39 39 39 38 39 39 36 33 34 37 40
3 3 4 6 8 9 11 12 14 15 16 18 18 20 21 23 24 26 27 29 30 32 34 36 38 40 41 42 44 45 46 48 50 51 52 52 52 52 52 53 53 53 53 56 58 59 60 61 63 64 63 63 62 61 60 58 53 48 46 45 43 43 44 45 47 48 49 50 50 49 47 45 43 40 39 39 40 40 40 38 33 29 29 33 38
4 4 5 6 8 10 11 13 14 15 16 17 18 20 20 22 23 25 27 30 32 34 36 37 40 42 44 46 47 48 49 50 51 52 53 53 53 53 53 54 53 50 49 51 53 53 54 58 61 62 61 61 60 59 58 55 51 49 48 45 43 42 42 44 45 46 48 50 50 49 48 46 43 41 40 40 41 40 38 35 31 27 27 32 37
4 5 6 7 8 10 12 13 14 15 16 17 18 19 21 22 24 26 29 31 34 36 38 40 42 45 47 49 50 51 52 52 53 53 53 53 54 54 54 54 54 52 50 51 52 51 52 55 57 57 57 57 56 54 54 53 51 49 48 46 45 44 43 43 43 43 44 46 47 48 48 45 42 41 41 41 40 39 36 32 28 27 28 32 36
5 5 7 8 9 11 12 12 13 15 16 17 18 20 22 24 26 28 30 32 35 38 40 42 44 46 49 51 52 53 53 54 54 54 54 54 54 55 55 55 55 54 53 52 52 50 50 51 52 53 54 54 53 53 54 55 54 52 51 50 48 45 42 42 41 39 39 41 44 45 45 42 40 40 40 39 38 36 33 29 26 27 29 31 33
5 6 8 9 10 11 12 12 13 14 15 16 18 20 23 25 28 30 32 35 37 39 42 44 45 47 48 50 51 53 54 54 55 55 55 55 56 56 56 57 57 56 54 52 51 49 49 49 50 51 52 53 53 54 55 56 54 53 52 50 46 43 40 39 38 36 35 37 40 41 41 39 38 37 38 37 36 34 30 27 26 26 28 30 31
7 8 9 10 10 11 11 12 13 14 15 17 19 21 24 27 30 32 35 37 39 41 43 44 45 46 48 49 51 52 54 54 55 54 55 56 57 57 58 58 58 56 54 52 51 50 51 51 50 50 51 52 53 53 53 52 51 50 50 48 44 41 40 39 38 37 36 37 38 39 39 38 36 36 36 35 33 31 28 26 26 26 28 29 29
9 9 10 10 10 11 12 12 13 14 16 18 20 23 26 29 32 34 36 38 40 41 43 43 43 44 46 48 49 51 53 53 53 53 53 54 54 55 56 56 56 54 52 51 50 51 51 51 51 51 52 52 52 52 51 49 47 47 47 45 43 41 40 39 38 37 37 38 40 39 38 37 36 36 36 34 31 29 27 26 27 27 28 28 28
9 9 9 10 10 11 11 12 14 16 18 20 23 25 28 31 33 35 36 37 38 40 41 41 41 42 43 44 45 47 50 52 51 50 50 50 50 50 51 51 50 49 48 47 48 49 51 51 51 52 52 52 53 53 52 49 48 48 46 44 42 40 38 37 37 37 38 40 40 38 37 36 36 36 35 33 30 28 27 27 27 27 28 29 29
9 9 10 10 11 11 12 14 15 18 20 23 25 27 29 31 33 35 36 37 37 37 38 38 38 39 41 42 41 42 44 46 46 47 47 49 49 50 50 49 47 45 44 44 45 47 49 50 50 50 50 50 51 51 50 48 47 47 44 41 39 37 36 37 38 38 39 39 38 37 36 35 36 35 34 32 30 28 27 27 28 28 29 30 30
10 11 11 11 11 12 13 15 17 20 22 25 27 29 31 33 34 35 36 36 37 37 36 36 36 36 38 40 41 41 41 41 42 42 43 45 46 47 49 49 47 44 42 42 42 44 45 46 48 48 47 47 46 46 46 45 44 43 42 40 39 38 38 39 38 38 39 38 36 35 35 35 35 35 33 32 30 29 28 28 29 30 30 31 30
12 11 11 11 11 12 14 16 19 21 23 26 28 31 33 35 36 37 38 37 37 37 36 35 36 36 36 37 39 41 42 43 43 43 43 43 43 43 43 45 44 43 41 39 39 39 40 41 43 45 46 45 45 45 46 45 43 41 40 41 41 40 40 40 39 38 38 37 36 35 35 34 34 33 32 31 30 29 29 29 30 31 32 31 31
12 11 11 11 12 13 15 17 20 22 24 27 29 32 34 36 38 39 40 40 39 38 37 36 36 37 37 37 38 38 40 41 43 44 44 43 42 41 40 40 40 40 38 36 36 38 39 41 42 43 44 43 44 45 45 43 41 40 40 42 42 42 40 40 40 39 37 36 36 36 35 34 33 32 31 31 31 30 29 29 31 33 33 33 33
12 11 11 11 12 14 16 19 21 23 26 28 30 31 33 35 36 38 39 41 41 42 41 40 39 38 39 39 39 39 40 40 41 41 42 42 42 41 40 39 39 37 35 34 35 37 39 41 43 43 43 44 45 47 47 44 42 42 44 44 43 42 40 40 39 38 37 37 37 37 35 33 32 32 31 31 30 30 29 30 32 34 35 35 35
12 11 11 12 13 15 18 20 22 24 26 28 29 31 32 33 33 34 36 37 39 41 42 41 40 39 40 41 41 42 42 41 41 40 40 40 41 40 41 42 43 42 40 38 38 39 40 41 42 43 45 47 47 47 45 44 42 42 43 43 43 41 40 40 38 37 37 38 38 36 35 33 31 31 31 31 31 31 30 31 33 34 36 36 36
11 11 11 13 14 17 19 21 22 24 26 27 28 29 30 31 31 32 32 33 35 37 39 41 41 40 40 41 41 42 42 42 41 41 40 40 39 39 40 43 45 46 45 43 42 42 43 42 42 44 47 48 46 45 44 44 44 43 42 42 42 42 41 40 39 37 37 38 38 35 33 32 31 30 30 30 31 31 31 31 33 36 37 37 37
11 11 12 14 16 17 19 21 23 24 25 26 27 28 28 29 29 30 30 31 33 34 36 38 40 42 42 42 43 44 43 42 41 40 40 40 40 39 38 39 41 44 45 44 44 43 43 42 43 46 48 47 46 46 47 47 46 44 43 43 42 42 41 40 38 36 36 37 36 33 32 31 30 30 30 30 30 31 31 32 35 37 38 37 37
11 12 13 14 16 18 20 21 22 23 24 25 26 26 27 27 27 28 28 29 31 32 34 36 38 40 42 44 44 45 45 44 43 42 41 42 41 40 39 38 39 40 41 42 42 41 42 43 44 45 46 45 45 45 44 43 42 41 40 41 40 39 38 36 34 34 34 34 32 31 30 29 29 29 29 30 30 30 31 33 36 39 39 36 35
12 13 14 16 17 19 20 21 22 22 23 23 24 25 25 25 26 26 27 28 30 31 32 34 35 37 39 42 44 45 46 45 44 43 43 43 42 40 39 38 39 39 40 41 42 42 42 43 42 42 41 41 40 39 37 36 36 35 35 35 36 35 33 32 31 31 32 31 30 29 28 28 28 27 28 29 30 30 31 33 37 39 37 35 34
13 14 15 17 18 19 20 20 21 21 21 22 22 23 23 23 24 25 26 27 29 30 31 32 33 34 36 38 40 42 44 43 42 41 41 41 41 39 38 38 38 39 39 40 41 41 42 42 40 38 37 35 35 34 33 32 32 31 31 31 33 32 30 29 30 30 29 28 28 28 27 27 26 26 26 28 29 30 31 34 37 38 36 34 34
14 15 16 17 18 19 19 19 19 19 20 20 20 21 21 21 22 23 25 26 28 29 30 31 31 32 33 35 36 38 39 39 38 38 38 38 37 37 37 37 37 38 38 38 39 40 40 40 38 36 34 33 32 31 31 30 30 30 30 30 30 30 30 29 29 29 28 27 27 26 25 25 25 25 25 26 28 30 32 35 37 37 34 33 32
15 16 17 17 18 18 17 17 18 18 18 18 18 19 19 20 21 22 24 25 26 28 29 30 31 31 31 33 34 35 36 36 36 35 35 35 35 35 35 35 35 36 36 37 38 39 39 38 37 35 33 32 31 31 31 31 31 31 30 30 29 29 28 28 28 27 27 26 26 25 24 24 23 23 24 25 27 29 32 36 37 36 33 32 31
16 16 16 17 17 17 16 16 16 16 17 17 17 17 19 20 21 22 23 24 25 27 28 30 30 31 31 32 33 34 35 36 35 34 34 34 33 34 34 34 34 34 35 35 36 37 38 38 36 35 33 32 32 32 32 31 31 30 29 27 26 26 26 25 25 25 25 24 23 23 22 21 21 22 22 24 26 28 32 36 37 35 32 31 29
16 16 16 16 16 15 15 15 15 16 16 16 16 17 18 20 21 22 23 24 25 26 27 28 30 31 31 31 32 33 34 35 36 35 35 34 33 33 34 34 34 34 34 34 34 35 35 36 36 35 34 33 32 32 31 29 28 27 26 25 23 23 22 22 22 21 21 21 21 20 20 20 20 21 21 22 24 27 32 36 36 33 30 28 26
16 15 15 15 14 14 14 14 14 15 15 16 16 17 18 19 21 22 22 24 25 26 26 27 28 29 30 31 31 32 33 34 35 35 35 34 34 33 33 33 34 35 34 34 33 34 34 34 34 34 34 33 32 31 30 28 26 24 22 22 21 20 19 19 19 19 18 18 18 18 18 18 19 19 20 21 23 26 32 36 34 30 27 25 23
15 15 15 14 13 12 12 13 13 14 15 16 17 18 18 19 20 20 21 22 24 24 25 26 27 28 29 30 30 31 31 32 33 34 34 34 34 33 32 32 32 33 33 33 33 33 33 33 33 33 33 32 30 29 28 28 27 24 21 20 18 17 16 15 15 15 15 14 14 14 15 16 16 17 18 18 21 27 34 34 30 26 24 23 22
15 15 14 13 12 12 12 13 14 15 16 16 17 17 17 18 18 19 20 21 22 23 24 25 26 27 28 29 29 30 31 31 31 32 32 33 33 33 32 31 30 30 31 31 31 32 31 31 32 32 31 30 29 28 27 27 27 26 24 20 17 14 12 11 10 10 9 9 8 9 11 12 13 14 15 16 21 29 34 32 27 24 23 22 21
14 14 13 12 12 12 13 13 14 15 15 16 16 16 16 17 17 18 19 20 21 22 23 24 25 27 28 28 29 30 30 30 30 30 30 31 32 32 31 30 29 29 29 29 29 30 30 29 30 30 29 29 29 28 27 27 26 26 25 22 18 14 11 10 9 9 8 6 4 4 6 8 10 12 13 17 24 31 32 29 25 23 21 20 20
13 13 12 12 12 13 13 13 14 14 14 14 14 14 15 16 17 18 19 20 21 22 23 24 25 26 27 28 29 29 29 30 30 29 29 29 30 30 30 30 28 28 27 27 27 28 28 28 27 27 27 27 27 27 27 26 26 25 24 23 21 18 16 15 14 12 11 8 6 3 1 4 7 9 13 19 27 31 30 26 23 22 20 19 19
13 12 12 12 13 13 13 13 13 13 14 14 14 14 14 15 17 18 19 20 21 22 24 25 25 26 27 27 28 28 29 29 29 30 29 29 28 29 29 29 28 27 26 26 26 26 26 26 26 26 26 26 26 25 25 25 25 25 24 23 21 19 17 16 15 14 12 10 8 6 3 1 5 9 15 22 27 28 25 22 21 20 19 19 18
13 12 12 12 12 12 12 12 12 13 13 13 13 14 15 16 17 18 19 21 22 23 24 25 26 26 26 27 27 28 28 28 29 29 29 29 28 28 28 28 28 27 27 26 25 25 25 25 25 25 24 24 24 24 23 22 23 24 23 22 20 18 16 15 15 14 13 11 10 7 4 2 5 11 17 22 24 23 20 19 18 18 17 17 16
Wind_Direction
167 173 178 179 182 184 184 191 196 205 217 203 202 190 176 177 359 355 351 347 344 343 342 344 347 348 349 348 345 344 342 340 339 337 337 336 336 335 333 332 332 331 330 330 329 327 325 324 324 325 322 318 316 315 313 311 307 304 299 294 290 284 279 276 274 280 289 293 290 289 291 291 292 292 293 295 296 297 297 297 297 295 294 293 291
173 176 180 181 183 183 182 184 180 183 187 185 187 188 197 300 340 347 349 348 347 348 349 351 352 351 350 348 346 345 343 341 340 338 337 336 335 334 333 332 331 330 330 329 329 328 327 326 327 327 325 321 321 321 319 317 314 311 308 302 297 292 284 277 274 275 283 291 291 288 288 290 291 293 295 296 296 296 296 296 298 298 296 293 290
174 177 179 179 178 175 171 171 173 180 185 187 192 201 263 330 347 352 352 352 352 352 352 352 352 349 348 346 344 343 341 340 338 336 335 333 332 332 331 330 329 329 328 328 328 327 326 325 326 326 324 321 321 322 321 320 318 314 312 309 304 301 295 284 277 274 278 288 293 291 289 291 292 294 295 295 294 295 295 296 300 300 297 294 292
174 173 172 171 168 166 167 169 176 187 192 195 205 221 287 336 351 352 352 354 354 354 353 351 350 347 346 344 343 341 340 338 336 334 333 331 331 330 330 329 329 328 328 328 328 327 326 325 324 324 323 320 320 320 320 319 318 316 314 313 310 308 305 295 286 282 280 286 294 297 294 293 295 295 294 293 294 295 294 296 300 300 297 295 294
171 169 167 169 169 172 179 182 186 194 197 196 199 199 206 283 339 347 352 353 352 351 350 348 346 345 343 342 340 339 337 335 333 333 332 331 330 330 329 329 329 329 329 328 328 327 326 326 326 325 323 321 320 320 319 317 316 315 313 313 313 311 308 303 295 290 284 284 292 299 298 294 295 296 295 295 295 295 294 296 300 300 298 297 296
174 175 176 179 185 189 189 189 189 192 192 190 187 185 195 315 340 343 344 345 344 343 342 342 341 339 338 337 336 336 334 333 331 331 330 329 328 328 328 328 328 328 328 328 328 327 327 326 326 326 325 323 322 321 319 317 315 313 311 310 311 310 307 305 301 295 289 286 289 294 297 296 295 295 296 296 295 294 295 298 301 301 299 298 297
184 186 187 189 192 192 189 187 185 185 184 183 184 192 315 336 338 337 337 337 336 336 336 336 335 335 334 334 334 334 333 332 330 330 329 328 327 327 327 327 326 326 326 326 326 326 326 325 325 325 324 323 322 321 320 317 314 311 310 309 308 307 306 305 302 297 292 289 288 290 293 296 295 294 295 295 293 292 295 299 302 302 300 299 297
191 190 188 188 188 186 183 180 176 176 177 194 322 334 336 335 333 333 332 332 331 331 331 331 331 331 332 332 333 333 332 330 329 329 328 328 328 327 327 327 326 325 324 324 324 324 324 324 324 324 324 323 322 321 319 317 314 311 310 308 305 304 304 303 302 299 294 291 289 289 291 293 293 292 292 293 291 291 296 301 301 299 299 298 296
191 187 184 182 180 177 175 173 171 174 299 326 329 332 333 331 330 329 328 327 328 328 327 327 326 326 327 328 329 330 330 331 331 331 331 330 329 328 328 327 326 325 324 323 323 323 322 322 322 322 322 322 322 321 320 318 315 313 312 309 304 302 301 301 300 298 295 291 289 290 289 289 289 289 289 290 289 292 298 300 297 296 297 295 294
186 182 179 177 176 176 177 179 189 303 322 322 324 326 328 327 326 325 324 324 324 324 324 324 324 324 325 326 327 329 330 331 332 332 332 331 330 329 327 327 326 325 324 323 321 321 321 320 320 320 320 320 320 320 320 319 317 314 312 309 304 300 298 298 298 296 294 290 289 289 286 285 287 287 286 288 289 290 296 298 295 295 294 291 291
181 179 178 178 180 185 194 222 290 312 315 316 319 322 324 325 325 324 324 324 324 324 324 325 325 326 327 328 329 330 331 331 330 329 329 329 328 327 325 325 324 323 323 322 320 320 319 319 318 318 318 319 319 319 318 318 318 316 313 310 306 301 297 295 295 295 292 290 289 288 285 283 286 286 285 286 287 288 294 296 293 291 289 286 286
182 183 183 186 193 200 219 262 300 309 311 316 320 324 327 327 327 326 325 325 325 325 326 326 327 328 328 328 329 330 331 331 330 328 328 328 327 325 324 323 322 322 321 321 320 319 318 318 317 317 317 318 318 318 317 317 316 315 313 311 308 305 301 296 293 292 291 289 288 287 285 284 285 286 285 285 285 287 291 292 289 288 286 284 282
189 191 193 201 212 222 245 283 308 313 316 322 325 328 329 327 327 327 327 327 327 327 327 328 329 329 329 328 329 330 331 331 330 330 329 328 327 325 324 323 321 320 320 319 319 318 317 317 316 315 316 317 316 316 316 315 314 313 311 310 309 308 306 302 296 291 289 287 284 285 287 285 283 284 285 286 286 287 287 288 287 287 284 282 283
197 202 209 221 233 244 269 302 317 320 323 327 328 329 329 328 329 329 329 328 328 328 328 328 329 329 329 328 327 329 331 331 331 330 329 328 327 325 323 322 320 319 318 317 317 316 316 316 315 313 313 313 313 314 315 314 313 311 309 308 308 307 307 304 301 296 293 289 283 283 288 289 285 284 285 286 287 286 285 286 287 286 284 285 286
203 211 222 235 248 265 300 322 328 329 331 331 331 331 331 330 331 330 330 329 329 329 329 328 328 328 329 328 327 327 330 331 330 329 329 328 326 324 322 320 318 317 316 315 314 314 313 313 312 311 310 310 310 312 313 314 312 310 308 306 306 305 304 303 302 301 298 294 288 286 289 291 289 288 285 285 286 286 285 286 286 285 284 283 279
208 217 228 241 262 294 325 336 335 334 333 332 332 332 332 332 331 329 328 328 328 327 327 327 327 327 328 328 327 325 327 330 329 328 328 327 325 322 320 319 317 315 314 313 313 312 311 310 310 309 308 307 307 309 311 312 310 308 306 305 304 303 301 300 301 301 300 297 294 291 291 290 289 286 284 284 285 287 287 286 284 281 277 271 267
211 219 231 251 287 319 334 339 337 334 333 333 332 332 331 331 330 327 325 325 325 325 325 326 327 328 328 328 327 325 325 327 329 327 326 326 324 321 319 318 316 314 313 312 311 309 309 308 308 307 306 305 306 307 309 309 307 305 304 303 302 301 299 299 300 301 300 298 297 295 294 293 290 287 284 282 282 285 285 282 281 279 273 266 261
211 220 240 275 308 327 335 337 335 333 332 331 331 331 331 329 327 325 324 324 325 326 325 325 327 328 328 328 327 326 325 325 326 326 325 324 322 321 319 317 315 314 313 312 310 308 307 306 306 305 305 305 305 305 306 306 304 302 301 301 299 298 298 299 300 300 299 298 297 296 295 296 294 291 287 282 281 282 279 275 277 276 270 265 260
212 229 265 298 317 328 332 333 332 331 331 331 331 330 329 327 326 325 325 325 326 327 327 326 326 327 327 326 325 324 323 323 323 323 323 322 321 320 319 317 315 314 312 310 308 306 305 305 305 304 304 305 305 304 304 303 302 300 299 297 294 294 297 299 299 298 297 296 296 295 294 294 294 293 290 286 283 282 279 276 275 271 266 263 257
219 247 285 305 319 327 330 330 330 330 331 332 331 329 327 325 325 325 326 326 327 327 327 326 324 324 325 324 323 323 322 322 322 322 322 321 321 319 317 316 314 313 311 309 307 306 305 304 304 303 303 303 303 303 302 301 300 299 296 293 290 292 296 297 296 295 294 293 293 292 291 291 293 294 292 290 286 284 283 281 277 271 265 260 254
229 264 296 310 318 325 327 329 330 330 330 330 328 327 325 324 325 326 326 326 326 326 326 325 323 322 322 322 322 322 323 322 323 323 323 322 321 320 318 315 314 313 311 309 307 306 305 305 304 303 303 303 302 302 302 301 300 298 294 291 289 290 293 292 291 291 291 291 291 290 289 289 291 293 293 293 291 289 287 285 281 275 267 258 253
245 273 298 308 316 323 325 328 328 327 326 324 323 323 324 325 326 326 326 326 326 325 325 324 323 322 321 322 323 323 324 324 324 324 324 323 322 320 318 316 315 315 313 310 308 307 307 306 305 304 304 303 303 302 302 301 300 297 295 293 291 290 289 288 288 288 288 288 288 288 288 288 289 291 293 294 293 291 290 289 286 279 269 259 254
246 270 292 304 316 322 323 323 322 319 319 319 320 322 324 325 327 327 327 327 326 325 325 325 324 323 323 323 324 325 325 325 325 324 323 323 321 319 318 317 316 315 312 309 307 306 304 304 304 304 303 303 302 301 301 300 298 297 296 295 293 291 289 286 285 285 284 285 285 285 286 287 288 290 292 292 292 291 290 290 288 280 267 255 249
248 274 295 307 315 316 314 314 313 313 316 318 320 323 325 326 328 328 328 327 326 325 326 326 325 325 325 325 325 325 326 325 324 324 323 322 321 319 318 317 316 315 312 309 308 307 305 305 305 305 304 304 303 302 301 300 299 298 298 297 298 297 294 291 289 287 284 283 283 282 284 286 287 289 290 291 290 289 288 287 284 276 265 255 248
261 283 297 303 304 304 304 307 309 312 316 318 321 324 326 327 328 328 328 327 327 327 327 327 327 326 325 324 324 324 325 324 324 324 324 323 322 321 320 318 317 317 316 314 313 312 310 309 307 306 306 305 304 303 302 301 302 301 301 302 303 302 299 296 295 293 289 285 283 282 284 286 288 288 288 288 287 285 284 282 278 270 261 252 244
270 282 288 292 293 296 300 304 308 313 317 321 325 327 328 329 328 328 329 328 328 328 328 328 327 326 325 324 323 323 324 324 325 326 325 324 323 322 321 320 320 320 319 317 316 314 311 309 307 306 305 304 303 302 301 301 302 302 303 305 306 304 302 299 297 295 294 292 289 287 287 288 288 287 286 284 282 280 279 276 270 262 254 247 238
269 276 282 287 289 294 299 304 310 316 320 324 327 329 329 329 329 329 330 329 329 329 328 328 328 327 325 325 325 324 324 325 326 327 326 325 324 324 323 323 322 321 319 318 317 315 312 310 307 305 304 303 302 302 302 302 303 303 304 305 305 303 303 302 298 295 296 297 294 290 288 287 286 285 282 280 277 275 273 268 262 253 245 240 232
268 275 280 285 290 296 302 308 314 320 324 327 328 329 329 329 329 330 330 330 329 329 328 329 330 329 328 327 327 326 325 325 327 328 328 327 326 325 324 323 322 321 320 319 318 315 312 310 309 308 308 307 307 307 306 305 303 302 303 303 302 301 302 303 299 295 295 296 293 289 287 287 286 283 279 276 272 269 264 259 253 246 239 233 227
267 274 279 286 295 301 308 315 321 324 326 328 329 330 330 330 329 329 329 329 329 329 329 330 331 330 329 329 330 329 327 326 328 329 328 327 326 323 321 320 319 319 318 318 316 314 313 313 312 311 311 309 308 307 306 304 303 303 303 302 299 300 302 303 299 296 296 295 293 289 288 287 285 280 276 271 266 262 256 251 245 237 230 226 221
269 277 284 292 299 306 314 321 325 327 328 329 329 329 328 328 327 327 328 329 329 330 330 331 332 332 329 329 331 331 329 328 329 328 328 327 326 324 323 322 320 318 317 318 316 313 312 311 309 308 307 307 307 307 306 305 304 304 304 302 299 300 303 302 298 295 296 295 292 290 289 287 284 279 273 268 262 255 249 243 237 230 224 220 215
276 281 288 294 302 312 319 323 326 328 328 328 327 326 325 326 326 326 327 328 328 329 330 331 333 334 332 331 331 331 330 329 329 329 329 329 328 326 325 324 323 322 321 319 315 311 310 308 308 308 309 309 308 308 308 306 304 303 303 302 301 302 303 301 298 296 296 295 292 289 288 287 284 279 272 265 259 251 243 235 227 221 219 218 215
276 280 287 296 307 315 320 323 324 325 325 325 325 325 325 325 325 325 325 326 327 328 330 332 334 334 335 336 335 333 331 330 330 332 333 332 330 329 327 326 325 324 323 321 318 315 314 314 313 314 314 312 310 309 309 306 304 303 303 302 302 301 301 300 300 300 297 294 292 290 288 287 284 277 269 262 253 245 239 230 221 215 212 212 211
272 278 287 298 309 315 318 320 321 322 323 325 326 327 327 326 325 324 323 323 325 327 330 334 336 336 337 339 340 338 336 335 335 335 335 334 333 333 331 327 324 325 326 326 324 323 321 319 317 315 315 315 314 314 313 310 308 306 306 306 306 304 302 302 302 301 298 295 293 290 287 285 281 273 265 257 248 242 236 227 217 211 207 205 203
269 276 287 299 307 313 316 318 320 322 324 325 326 326 326 325 324 323 322 322 324 327 330 334 337 338 338 338 339 340 341 340 340 340 339 338 337 336 332 327 326 328 331 330 328 326 323 320 318 318 319 317 315 315 315 314 313 312 311 310 310 308 306 305 303 302 300 298 295 290 284 281 278 271 262 253 243 235 230 223 215 209 206 205 202
266 275 288 300 308 313 315 317 320 322 323 324 325 324 324 324 324 323 324 324 325 327 328 332 336 339 341 341 340 340 341 342 343 344 343 342 341 338 335 333 334 336 335 333 329 326 323 321 321 320 317 314 313 315 317 316 316 315 314 313 312 310 309 307 305 304 302 299 294 289 283 279 275 269 261 252 242 234 227 220 214 209 206 204 201
267 280 295 304 309 313 315 316 319 320 321 323 323 323 323 324 323 324 326 327 328 329 329 331 333 336 341 344 344 342 342 343 345 346 346 345 343 340 337 337 337 335 333 331 329 326 325 324 321 316 313 312 313 314 313 312 311 311 310 310 310 309 308 307 306 304 302 298 293 287 281 277 273 266 257 248 240 234 227 219 212 206 203 200 195
274 288 300 306 309 311 313 314 316 318 320 321 322 322 323 323 324 326 329 330 332 332 333 334 336 337 339 343 345 344 343 344 346 348 348 348 346 344 340 336 334 332 330 329 328 325 323 320 315 311 310 311 310 309 309 309 309 308 307 306 306 305 305 305 305 304 301 296 291 285 279 276 272 265 255 245 235 228 222 215 207 201 198 196 191
282 293 300 304 306 307 308 311 314 316 319 321 321 322 323 324 327 330 332 333 334 335 336 339 342 342 342 342 344 344 343 344 346 348 349 349 349 347 343 339 336 333 330 328 326 322 318 314 312 311 312 312 312 311 311 311 311 310 309 308 307 306 305 305 305 303 299 294 288 283 278 274 269 262 252 242 234 227 220 213 206 199 193 190 188
285 293 297 299 300 302 304 308 312 315 318 321 321 323 325 328 330 333 334 335 336 338 340 342 344 346 346 346 346 345 344 345 347 348 349 350 350 348 346 344 342 340 336 333 330 326 322 319 318 317 317 317 317 316 315 314 313 313 313 313 313 313 312 312 310 306 300 293 287 283 277 271 266 258 248 239 232 227 220 212 205 197 190 186 185
281 287 289 292 295 298 302 307 311 315 319 321 323 325 327 330 332 335 336 337 338 340 342 343 344 347 350 350 350 349 347 346 347 348 349 349 349 348 349 350 348 346 344 340 337 334 330 327 326 325 324 324 323 322 321 321 320 319 319 320 320 321 321 319 313 306 299 292 287 283 277 269 261 252 243 236 229 225 219 210 200 192 187 183 182
275 279 283 287 291 296 301 307 312 317 320 322 324 326 329 332 335 336 336 338 338 339 340 342 344 348 351 352 352 352 349 346 346 347 349 349 349 349 350 352 352 351 350 348 345 343 339 336 335 334 333 333 332 332 332 331 330 329 328 328 327 326 325 321 314 306 299 292 286 281 275 268 260 250 242 234 225 218 213 204 194 187 184 183 182
268 274 279 284 290 295 302 308 314 317 320 322 324 327 330 333 335 335 335 336 337 337 337 339 342 346 350 351 351 352 351 349 347 346 347 349 349 349 350 352 353 352 352 351 349 348 347 345 344 343 342 342 343 343 342 340 338 335 332 330 328 326 322 318 313 308 301 294 287 280 274 266 257 247 239 232 223 215 208 199 190 185 184 183 182
265 271 278 283 289 296 302 308 313 316 319 322 326 329 330 332 332 332 332 333 334 334 335 336 339 343 347 349 349 350 351 351 349 347 347 347 349 350 350 350 350 350 351 351 350 349 349 349 350 350 350 351 351 349 345 342 338 334 331 330 329 327 322 318 315 311 306 298 289 279 271 262 252 244 236 228 220 212 204 195 188 184 184 183 181
264 270 276 282 288 294 301 307 312 315 318 322 326 327 327 327 328 329 329 330 330 331 332 333 335 338 342 345 347 349 351 352 351 349 347 346 348 350 351 350 349 349 349 350 350 350 349 349 349 351 353 354 353 349 345 340 335 332 331 331 331 329 327 323 319 315 310 303 293 282 270 258 248 242 234 225 218 210 200 191 186 184 183 182 180
263 268 274 279 285 292 300 306 310 313 316 319 321 322 323 324 325 327 328 328 329 329 330 332 334 335 338 341 344 346 348 350 351 351 349 347 346 348 350 350 350 350 351 351 352 352 352 351 350 351 352 353 352 350 347 343 339 335 333 333 333 332 331 327 322 319 314 306 297 286 271 256 247 240 231 221 215 206 195 189 185 182 179 179 180
261 265 270 277 284 292 299 304 307 310 312 314 317 320 323 325 327 330 330 330 331 332 333 335 335 335 335 338 340 342 345 348 349 351 350 349 346 346 349 351 351 351 352 353 354 356 357 357 356 356 355 353 352 352 353 352 349 345 341 337 334 333 334 332 328 324 317 308 298 286 270 255 246 238 229 218 209 199 191 187 184 181 180 181 182
258 264 270 277 285 292 297 300 303 306 309 312 317 321 325 328 331 332 333 334 336 338 339 339 339 338 337 338 338 339 341 344 346 349 350 349 348 347 347 349 352 352 352 353 356 358 0 2 2 3 1 358 356 356 358 0 0 358 355 349 342 339 342 344 343 339 332 320 304 286 268 256 246 234 223 209 198 192 188 185 182 182 184 185 185
258 265 271 279 286 290 294 298 302 305 308 312 317 322 326 329 332 333 334 337 338 339 339 340 340 340 339 340 339 338 338 339 342 345 347 348 348 347 347 348 350 351 351 353 355 358 0 2 4 6 6 4 3 4 6 6 6 6 5 3 0 2 10 17 20 20 18 9 347 300 267 255 244 230 215 198 189 186 185 184 183 183 185 186 188
258 264 272 279 285 290 293 297 300 303 307 312 317 321 325 328 330 331 333 334 335 336 336 336 337 337 338 339 339 339 339 337 338 339 342 344 346 346 346 347 348 349 350 351 352 354 357 359 2 5 6 6 6 8 12 13 12 10 10 12 16 23 33 41 45 48 51 51 43 23 296 241 226 214 199 188 185 185 185 185 184 184 186 188 191
257 265 272 279 284 288 292 296 299 303 307 311 315 320 323 325 327 329 330 330 332 333 332 331 332 332 333 333 335 336 338 338 337 336 337 340 342 343 344 344 346 347 349 350 350 351 352 354 357 359 1 3 4 5 9 15 18 17 16 17 22 29 38 47 52 55 59 59 54 45 33 272 211 195 184 180 182 184 184 185 186 188 191 194 197
259 266 273 278 281 285 289 292 296 301 305 310 314 318 321 323 325 326 328 328 329 329 329 328 328 328 328 329 329 330 332 335 336 336 335 335 336 338 340 341 342 344 346 347 348 349 350 351 353 354 355 358 1 1 3 10 17 20 20 22 27 33 40 48 55 61 64 64 63 63 67 104 169 172 170 173 177 181 183 186 190 193 197 200 203
Height
1546 1547 1548 1549 1550 1550 1551 1551 1551 1551 1552 1552 1553 1553 1553 1553 1554 1554 1553 1553 1552 1551 1551 1550 1550 1549 1548 1548 1547 1546 1546 1545 1544 1542 1541 1540 1539 1537 1536 1535 1534 1532 1531 1530 1528 1526 1524 1523 1522 1521 1519 1516 1515 1514 1512 1511 1509 1507 1506 1505 1502 1503 1502 1501 1496 1483 1472 1473 1475 1473 1473 1471 1468 1466 1465 1464 1463 1463 1461 1460 1459 1458 1456 1455 1454
1546 1546 1547 1548 1549 1549 1549 1550 1550 1550 1551 1551 1552 1552 1552 1553 1553 1553 1553 1552 1551 1550 1550 1549 1549 1548 1548 1547 1546 1546 1544 1543 1542 1541 1539 1538 1537 1536 1534 1533 1532 1530 1529 1527 1526 1524 1522 1520 1519 1518 1516 1514 1512 1511 1509 1507 1506 1503 1502 1501 1498 1497 1497 1495 1492 1485 1473 1468 1469 1469 1468 1467 1463 1460 1460 1459 1457 1457 1455 1453 1453 1451 1450 1449 1448
1545 1546 1546 1547 1548 1548 1548 1549 1549 1549 1550 1550 1551 1551 1551 1552 1552 1552 1552 1551 1550 1550 1549 1549 1549 1548 1547 1546 1545 1544 1543 1541 1540 1539 1537 1536 1535 1534 1533 1531 1529 1528 1526 1525 1523 1522 1520 1518 1517 1515 1513 1511 1509 1508 1507 1504 1502 1500 1497 1496 1494 1491 1491 1490 1487 1483 1474 1466 1463 1463 1463 1461 1458 1456 1455 1454 1452 1451 1449 1447 1446 1445 1444 1444 1443
1544 1545 1545 1546 1547 1547 1548 1548 1548 1549 1549 1549 1549 1550 1550 1551 1551 1551 1551 1551 1550 1549 1549 1548 1547 1546 1545 1544 1543 1542 1541 1539 1538 1537 1535 1534 1533 1531 1530 1529 1527 1526 1524 1522 1520 1518 1517 1515 1513 1512 1509 1507 1505 1504 1503 1500 1498 1496 1493 1491 1489 1486 1484 1483 1481 1478 1473 1465 1459 1458 1458 1456 1453 1452 1451 1449 1447 1446 1444 1441 1440 1439 1438 1438 1438
1543 1543 1544 1545 1546 1547 1547 1548 1548 1548 1549 1548 1548 1549 1549 1550 1550 1550 1550 1550 1549 1548 1547 1547 1546 1545 1544 1542 1541 1540 1539 1537 1536 1535 1533 1532 1530 1529 1528 1526 1525 1523 1522 1520 1518 1516 1514 1512 1510 1508 1506 1503 1501 1500 1498 1496 1493 1491 1488 1486 1484 1481 1478 1477 1475 1473 1471 1464 1457 1453 1453 1452 1449 1447 1447 1445 1442 1441 1439 1436 1435 1433 1433 1433 1433
1542 1543 1544 1544 1545 1546 1547 1547 1548 1548 1548 1548 1548 1547 1548 1549 1549 1549 1549 1548 1547 1546 1546 1545 1544 1543 1542 1541 1540 1538 1537 1536 1534 1533 1531 1530 1528 1527 1526 1524 1522 1521 1519 1517 1516 1513 1511 1509 1507 1505 1503 1500 1498 1496 1494 1491 1489 1486 1484 1481 1479 1476 1473 1471 1469 1468 1465 1461 1456 1451 1448 1447 1445 1442 1442 1441 1438 1436 1434 1431 1429 1428 1428 1427 1427
1541 1542 1543 1544 1545 1546 1546 1547 1547 1547 1548 1548 1547 1546 1546 1547 1547 1547 1547 1546 1545 1545 1544 1543 1542 1541 1540 1539 1538 1537 1535 1534 1532 1531 1530 1528 1526 1525 1523 1522 1520 1519 1517 1515 1513 1511 1509 1506 1504 1502 1500 1497 1495 1493 1490 1487 1485 1482 1479 1477 1475 1472 1468 1466 1464 1462 1460 1457 1453 1448 1445 1442 1440 1439 1437 1436 1434 1431 1430 1428 1424 1423 1423 1422 1422
1540 1542 1542 1543 1544 1545 1546 1546 1545 1546 1547 1547 1546 1545 1544 1545 1545 1545 1545 1544 1543 1542 1542 1541 1540 1540 1539 1537 1537 1535 1534 1533 1531 1529 1528 1526 1524 1522 1520 1519 1517 1515 1513 1511 1510 1508 1505 1503 1501 1499 1497 1494 1492 1490 1487 1484 1481 1477 1475 1473 1470 1467 1464 1461 1459 1457 1455 1452 1448 1445 1442 1438 1436 1435 1433 1432 1429 1426 1426 1425 1420 1418 1419 1418 1417
1540 1541 1541 1542 1543 1544 1545 1544 1544 1545 1545 1545 1545 1544 1543 1543 1543 1543 1542 1542 1541 1541 1540 1540 1539 1538 1538 1536 1535 1534 1532 1531 1529 1527 1525 1523 1521 1519 1517 1515 1513 1510 1508 1507 1505 1504 1502 1499 1497 1495 1493 1491 1489 1486 1484 1481 1478 1474 1471 1469 1466 1462 1459 1456 1454 1451 1450 1448 1444 1441 1438 1434 1431 1431 1429 1427 1424 1423 1423 1421 1417 1415 1415 1413 1412
1539 1539 1540 1541 1542 1543 1544 1543 1543 1543 1544 1544 1544 1543 1541 1541 1541 1541 1541 1540 1540 1539 1539 1538 1537 1536 1535 1534 1533 1532 1530 1529 1527 1525 1522 1520 1517 1515 1513 1511 1509 1506 1503 1501 1499 1497 1496 1494 1492 1490 1488 1486 1484 1482 1479 1477 1475 1471 1468 1465 1462 1458 1455 1451 1449 1447 1445 1442 1439 1436 1433 1428 1426 1426 1424 1422 1420 1419 1419 1417 1413 1412 1411 1409 1407
1538 1538 1539 1540 1540 1541 1542 1542 1541 1541 1542 1543 1542 1541 1540 1540 1540 1539 1539 1539 1538 1537 1537 1536 1535 1533 1532 1531 1530 1529 1528 1526 1524 1522 1520 1518 1515 1512 1509 1507 1505 1502 1500 1497 1494 1492 1490 1488 1485 1483 1481 1480 1478 1476 1473 1472 1469 1467 1464 1461 1458 1455 1452 1448 1444 1442 1440 1437 1434 1431 1428 1422 1420 1420 1419 1417 1417 1415 1414 1413 1410 1408 1407 1405 1403
1538 1538 1538 1539 1539 1540 1540 1540 1540 1540 1541 1541 1540 1539 1538 1538 1538 1537 1537 1536 1536 1535 1534 1533 1532 1531 1529 1528 1527 1526 1525 1523 1522 1520 1517 1515 1513 1509 1506 1504 1501 1498 1496 1493 1490 1487 1484 1481 1479 1477 1475 1473 1471 1468 1466 1464 1462 1460 1457 1455 1453 1450 1448 1445 1441 1438 1436 1433 1429 1425 1422 1418 1415 1415 1415 1414 1412 1411 1409 1408 1406 1404 1403 1401 1400
1537 1537 1538 1538 1539 1539 1538 1538 1538 1538 1539 1539 1538 1537 1536 1536 1535 1535 1534 1534 1533 1532 1531 1530 1529 1527 1526 1524 1523 1522 1521 1520 1518 1516 1514 1512 1510 1506 1503 1501 1497 1494 1492 1489 1486 1483 1479 1476 1473 1470 1468 1466 1464 1462 1459 1456 1454 1451 1449 1446 1444 1443 1441 1439 1436 1434 1431 1428 1423 1419 1417 1415 1412 1410 1411 1410 1408 1406 1404 1402 1401 1400 1398 1396 1396
1536 1536 1537 1538 1538 1537 1535 1535 1536 1536 1537 1537 1536 1535 1534 1533 1533 1532 1531 1531 1530 1529 1528 1527 1525 1524 1523 1521 1520 1519 1518 1516 1514 1513 1511 1508 1506 1503 1500 1497 1494 1491 1488 1485 1482 1479 1476 1472 1468 1465 1463 1461 1458 1456 1453 1450 1447 1443 1440 1438 1436 1434 1432 1430 1428 1427 1425 1422 1418 1414 1412 1411 1408 1406 1406 1406 1404 1402 1400 1398 1396 1395 1393 1392 1392
1534 1535 1536 1537 1537 1535 1533 1532 1533 1534 1534 1534 1533 1532 1532 1531 1530 1529 1528 1528 1527 1526 1525 1523 1522 1521 1520 1518 1517 1515 1515 1513 1512 1510 1508 1505 1503 1500 1496 1493 1490 1487 1484 1482 1479 1475 1472 1469 1465 1461 1458 1455 1454 1451 1448 1445 1441 1437 1433 1430 1428 1426 1424 1422 1420 1419 1417 1414 1411 1408 1406 1405 1404 1402 1401 1401 1399 1397 1396 1394 1392 1391 1389 1388 1387
1533 1533 1535 1536 1535 1533 1531 1530 1531 1532 1532 1531 1531 1530 1529 1528 1527 1526 1526 1525 1524 1523 1522 1521 1519 1518 1517 1516 1514 1512 1511 1510 1509 1507 1504 1502 1499 1496 1492 1488 1485 1482 1479 1477 1474 1470 1467 1464 1460 1457 1453 1450 1448 1447 1444 1440 1435 1431 1427 1424 1421 1419 1416 1414 1413 1412 1410 1407 1404 1402 1400 1399 1398 1397 1396 1395 1394 1392 1391 1389 1387 1386 1385 1383 1381
1531 1532 1533 1533 1533 1531 1529 1528 1528 1529 1529 1528 1528 1527 1526 1525 1524 1524 1523 1522 1521 1520 1519 1518 1517 1516 1514 1513 1511 1509 1508 1507 1505 1503 1501 1498 1495 1491 1488 1484 1480 1477 1474 1471 1468 1464 1462 1459 1456 1452 1448 1445 1443 1441 1439 1435 1430 1425 1421 1417 1415 1411 1407 1407 1407 1405 1402 1400 1397 1395 1394 1393 1392 1391 1391 1390 1389 1388 1386 1383 1381 1381 1380 1378 1376
1529 1529 1530 1531 1530 1529 1527 1526 1526 1526 1526 1526 1525 1524 1523 1523 1522 1521 1520 1519 1518 1518 1516 1515 1515 1513 1511 1510 1508 1505 1504 1503 1501 1499 1497 1495 1492 1488 1484 1479 1475 1472 1468 1465 1462 1458 1455 1453 1451 1447 1443 1440 1437 1435 1433 1429 1423 1419 1415 1411 1407 1403 1400 1401 1400 1397 1395 1392 1390 1388 1387 1385 1385 1385 1384 1384 1383 1383 1381 1378 1377 1377 1375 1373 1373
1527 1527 1528 1528 1527 1526 1524 1524 1524 1524 1524 1523 1522 1521 1521 1520 1520 1519 1518 1517 1516 1515 1513 1512 1511 1510 1509 1507 1506 1503 1500 1499 1498 1496 1493 1491 1488 1484 1480 1475 1470 1467 1463 1458 1454 1451 1449 1446 1445 1442 1438 1434 1431 1428 1426 1422 1417 1413 1410 1406 1401 1396 1394 1395 1394 1391 1388 1385 1383 1381 1379 1378 1378 1377 1377 1377 1377 1377 1375 1373 1373 1372 1369 1368 1369
1524 1525 1525 1525 1524 1523 1522 1521 1521 1521 1521 1520 1519 1519 1518 1518 1517 1516 1516 1515 1513 1512 1511 1509 1508 1507 1506 1504 1502 1500 1497 1494 1493 1491 1488 1486 1484 1480 1475 1471 1465 1461 1457 1452 1447 1443 1441 1439 1436 1434 1431 1428 1425 1421 1418 1416 1412 1408 1405 1402 1396 1392 1391 1390 1387 1385 1382 1379 1376 1375 1373 1371 1371 1370 1370 1370 1370 1370 1369 1368 1367 1365 1363 1363 1364
1522 1522 1523 1522 1521 1520 1519 1519 1518 1518 1518 1517 1517 1517 1516 1515 1515 1514 1513 1512 1511 1510 1508 1507 1505 1503 1502 1500 1498 1496 1493 1490 1487 1485 1482 1480 1477 1474 1470 1465 1461 1455 1450 1446 1441 1437 1433 1431 1428 1426 1423 1420 1417 1414 1410 1408 1405 1402 1399 1396 1393 1390 1388 1386 1382 1379 1377 1373 1371 1369 1366 1365 1365 1364 1363 1363 1362 1363 1362 1361 1360 1359 1358 1358 1358
1520 1520 1520 1519 1518 1517 1516 1516 1515 1515 1515 1515 1515 1515 1514 1514 1513 1512 1511 1510 1508 1507 1505 1503 1501 1499 1497 1495 1492 1490 1488 1485 1481 1478 1475 1473 1470 1467 1463 1459 1455 1451 1445 1440 1435 1431 1427 1424 1420 1417 1415 1412 1408 1406 1402 1400 1397 1394 1391 1389 1387 1386 1384 1381 1377 1374 1371 1368 1365 1363 1361 1360 1359 1358 1357 1357 1356 1356 1355 1355 1354 1354 1353 1353 1353
1517 1517 1517 1516 1515 1514 1514 1514 1514 1514 1514 1513 1513 1513 1513 1512 1511 1510 1509 1507 1505 1504 1502 1499 1497 1493 1491 1488 1486 1483 1481 1478 1475 1472 1469 1467 1463 1460 1456 1453 1449 1446 1440 1435 1430 1426 1422 1418 1413 1410 1407 1404 1401 1398 1395 1392 1390 1387 1384 1382 1381 1379 1377 1375 1372 1369 1365 1362 1360 1357 1355 1355 1354 1353 1352 1351 1350 1350 1350 1349 1349 1349 1348 1349 1349
1515 1514 1514 1513 1513 1512 1512 1512 1512 1512 1512 1512 1511 1511 1510 1510 1509 1507 1506 1504 1502 1499 1497 1494 1491 1488 1484 1481 1479 1476 1474 1472 1469 1467 1464 1461 1457 1453 1449 1446 1442 1439 1435 1430 1425 1421 1417 1412 1407 1403 1400 1396 1394 1391 1388 1385 1383 1380 1378 1376 1374 1373 1370 1367 1365 1363 1360 1357 1354 1352 1350 1350 1349 1348 1347 1346 1345 1345 1345 1345 1345 1345 1345 1345 1345
1511 1511 1511 1511 1511 1511 1511 1511 1510 1510 1510 1510 1509 1508 1508 1507 1506 1504 1503 1500 1498 1495 1492 1489 1486 1483 1480 1476 1473 1470 1468 1465 1463 1461 1458 1454 1449 1446 1442 1438 1435 1431 1427 1423 1419 1415 1410 1406 1401 1397 1393 1390 1387 1384 1381 1378 1376 1374 1372 1370 1368 1367 1364 1362 1360 1357 1355 1352 1349 1347 1346 1345 1345 1343 1342 1341 1340 1340 1340 1341 1341 1341 1341 1341 1342
1509 1509 1509 1509 1509 1509 1509 1509 1508 1508 1508 1507 1507 1506 1505 1503 1502 1500 1498 1496 1494 1491 1488 1485 1482 1479 1476 1473 1469 1466 1463 1459 1457 1454 1451 1446 1442 1438 1435 1431 1427 1424 1420 1416 1412 1408 1404 1400 1396 1392 1388 1385 1382 1379 1375 1372 1370 1367 1365 1364 1363 1361 1359 1358 1356 1353 1351 1348 1345 1343 1341 1341 1340 1338 1337 1337 1336 1336 1336 1337 1337 1338 1338 1338 1340
1506 1506 1506 1506 1507 1506 1506 1506 1506 1506 1505 1505 1504 1503 1502 1500 1498 1496 1494 1492 1489 1486 1484 1481 1479 1476 1472 1469 1465 1462 1458 1455 1452 1448 1444 1440 1435 1431 1427 1423 1419 1416 1412 1409 1405 1401 1397 1393 1390 1387 1383 1380 1376 1373 1370 1367 1365 1362 1360 1359 1357 1356 1355 1353 1352 1349 1347 1344 1341 1339 1338 1336 1335 1334 1333 1332 1332 1332 1333 1333 1333 1334 1335 1336 1338
1504 1504 1504 1504 1504 1503 1503 1503 1503 1503 1503 1502 1501 1500 1499 1497 1495 1493 1490 1488 1485 1483 1480 1478 1475 1472 1469 1465 1462 1458 1454 1451 1448 1444 1440 1435 1430 1426 1421 1417 1413 1410 1406 1403 1400 1395 1391 1387 1384 1380 1377 1373 1370 1367 1365 1363 1361 1359 1356 1354 1353 1351 1350 1348 1346 1345 1343 1340 1338 1336 1334 1333 1331 1330 1329 1328 1328 1329 1329 1329 1330 1331 1332 1333 1335
1501 1501 1501 1501 1501 1501 1501 1500 1500 1499 1499 1498 1497 1496 1495 1493 1491 1489 1487 1485 1483 1480 1478 1475 1473 1470 1467 1463 1460 1455 1451 1447 1444 1441 1437 1432 1428 1423 1419 1415 1411 1408 1405 1401 1397 1391 1386 1383 1379 1375 1372 1369 1365 1362 1360 1358 1356 1354 1351 1350 1348 1346 1344 1343 1341 1340 1338 1336 1334 1332 1331 1329 1328 1326 1326 1325 1325 1326 1326 1326 1327 1328 1329 1331 1332
1498 1498 1498 1498 1498 1498 1497 1497 1496 1496 1495 1494 1493 1492 1491 1490 1488 1486 1484 1482 1480 1478 1476 1473 1471 1468 1464 1462 1459 1455 1450 1445 1441 1437 1433 1429 1425 1420 1415 1412 1409 1406 1403 1400 1395 1389 1383 1380 1376 1373 1370 1367 1363 1359 1356 1354 1351 1348 1346 1345 1343 1342 1340 1339 1337 1335 1333 1331 1330 1329 1328 1326 1325 1323 1323 1322 1322 1322 1323 1323 1324 1325 1327 1328 1330
1495 1495 1495 1495 1495 1495 1494 1494 1493 1492 1491 1490 1489 1488 1488 1486 1485 1483 1481 1479 1477 1475 1473 1471 1469 1465 1462 1459 1456 1452 1448 1443 1439 1434 1430 1426 1422 1417 1412 1407 1403 1401 1399 1396 1392 1386 1382 1377 1373 1369 1367 1364 1360 1356 1354 1351 1348 1345 1343 1341 1340 1338 1337 1334 1332 1330 1329 1327 1326 1325 1324 1323 1322 1321 1320 1319 1319 1320 1320 1321 1322 1323 1324 1326 1328
1492 1492 1492 1492 1492 1491 1491 1490 1490 1489 1488 1487 1486 1484 1482 1481 1479 1478 1476 1475 1473 1471 1469 1468 1465 1463 1459 1455 1451 1447 1443 1439 1435 1430 1426 1422 1418 1413 1409 1404 1399 1397 1395 1392 1387 1383 1380 1375 1371 1366 1363 1360 1356 1354 1351 1348 1345 1342 1340 1337 1335 1334 1332 1330 1328 1327 1325 1323 1322 1322 1321 1320 1319 1318 1317 1317 1317 1317 1317 1318 1320 1321 1323 1325 1326
1490 1490 1490 1489 1489 1489 1488 1487 1487 1486 1485 1483 1482 1480 1478 1476 1474 1472 1471 1469 1468 1466 1465 1463 1461 1458 1455 1452 1448 1443 1439 1435 1430 1426 1422 1418 1413 1409 1405 1401 1397 1394 1391 1387 1383 1380 1376 1373 1369 1365 1361 1357 1354 1351 1348 1345 1343 1340 1337 1335 1332 1329 1328 1326 1325 1323 1321 1320 1319 1318 1317 1316 1316 1315 1314 1314 1314 1315 1315 1316 1318 1319 1321 1323 1325
1487 1487 1487 1486 1486 1486 1485 1484 1483 1482 1481 1479 1478 1476 1475 1473 1471 1469 1467 1464 1461 1459 1457 1456 1455 1452 1450 1447 1444 1439 1434 1430 1426 1422 1418 1414 1409 1405 1401 1397 1394 1391 1389 1385 1381 1378 1374 1370 1366 1362 1359 1355 1352 1348 1345 1342 1339 1336 1334 1331 1329 1326 1324 1323 1321 1320 1318 1317 1315 1314 1313 1313 1312 1312 1312 1312 1312 1313 1313 1314 1316 1318 1319 1321 1323
1484 1484 1484 1483 1483 1482 1481 1481 1480 1479 1477 1476 1475 1474 1472 1471 1469 1468 1465 1462 1458 1455 1452 1451 1450 1447 1445 1442 1438 1435 1430 1426 1422 1419 1415 1411 1407 1402 1397 1392 1387 1385 1383 1381 1379 1375 1372 1368 1364 1360 1356 1352 1349 1346 1342 1339 1336 1333 1330 1328 1325 1323 1321 1319 1317 1316 1315 1313 1312 1311 1310 1309 1309 1309 1309 1309 1309 1310 1311 1312 1314 1316 1318 1320 1322
1481 1480 1480 1479 1479 1478 1478 1477 1476 1475 1474 1473 1472 1471 1470 1468 1467 1465 1463 1460 1457 1454 1450 1448 1445 1443 1441 1437 1434 1430 1427 1423 1419 1415 1411 1408 1404 1400 1395 1390 1384 1380 1378 1376 1375 1372 1368 1366 1362 1358 1354 1349 1345 1342 1339 1335 1332 1330 1327 1325 1322 1320 1318 1316 1314 1312 1311 1310 1308 1308 1307 1307 1306 1306 1306 1307 1308 1308 1309 1311 1313 1315 1317 1319 1321
1477 1476 1475 1475 1475 1475 1475 1474 1473 1472 1471 1470 1469 1468 1467 1466 1464 1462 1459 1457 1455 1452 1449 1445 1441 1438 1435 1432 1429 1425 1422 1419 1416 1412 1409 1405 1402 1398 1394 1390 1385 1380 1376 1373 1371 1368 1365 1362 1359 1355 1350 1346 1342 1338 1335 1332 1329 1326 1323 1321 1319 1316 1314 1312 1310 1309 1307 1306 1305 1304 1304 1304 1304 1304 1304 1305 1306 1307 1309 1310 1312 1314 1316 1319 1322
1472 1472 1472 1472 1472 1472 1472 1471 1470 1469 1468 1467 1466 1465 1464 1462 1461 1458 1456 1454 1452 1449 1446 1443 1439 1435 1431 1427 1424 1420 1417 1414 1411 1407 1404 1401 1397 1394 1391 1387 1384 1379 1374 1371 1368 1365 1361 1358 1354 1350 1345 1342 1338 1335 1331 1328 1325 1323 1320 1317 1314 1312 1310 1308 1307 1305 1304 1303 1302 1302 1302 1301 1302 1302 1302 1303 1305 1306 1307 1309 1311 1313 1317 1320 1324
1468 1468 1469 1469 1469 1469 1469 1468 1467 1466 1465 1464 1463 1462 1460 1459 1457 1455 1453 1451 1449 1446 1443 1440 1438 1435 1430 1426 1422 1417 1413 1409 1406 1402 1399 1396 1393 1391 1388 1384 1380 1377 1372 1368 1364 1361 1356 1352 1348 1345 1341 1338 1334 1331 1328 1325 1322 1319 1316 1314 1311 1309 1306 1305 1303 1302 1301 1300 1300 1300 1299 1299 1300 1300 1301 1303 1304 1305 1307 1308 1311 1313 1317 1321 1324
1465 1466 1466 1466 1466 1466 1465 1465 1464 1463 1462 1461 1460 1459 1457 1456 1454 1452 1450 1448 1445 1443 1441 1438 1436 1433 1430 1426 1421 1416 1412 1408 1404 1401 1397 1394 1391 1389 1386 1383 1378 1374 1370 1366 1361 1357 1353 1348 1344 1341 1337 1334 1331 1328 1325 1322 1319 1316 1313 1311 1308 1306 1304 1302 1301 1300 1299 1299 1298 1298 1298 1298 1298 1299 1300 1302 1303 1305 1306 1308 1311 1315 1318 1321 1324
1463 1463 1463 1463 1463 1463 1462 1461 1460 1459 1458 1458 1457 1456 1454 1453 1451 1449 1447 1445 1443 1440 1438 1436 1434 1431 1428 1425 1421 1418 1414 1409 1405 1402 1398 1394 1391 1388 1385 1382 1378 1374 1370 1365 1360 1356 1351 1346 1342 1338 1335 1332 1329 1325 1322 1319 1316 1313 1311 1308 1306 1304 1302 1301 1300 1299 1298 1298 1297 1297 1297 1297 1297 1298 1300 1301 1303 1305 1307 1309 1312 1316 1319 1322 1325
1460 1460 1460 1460 1460 1459 1458 1458 1457 1456 1455 1455 1454 1453 1451 1449 1448 1446 1444 1442 1440 1438 1436 1434 1431 1429 1426 1423 1420 1417 1414 1410 1406 1402 1398 1395 1391 1388 1384 1381 1378 1374 1369 1365 1360 1355 1350 1346 1341 1338 1334 1331 1327 1324 1320 1317 1314 1312 1309 1307 1304 1302 1301 1300 1299 1298 1297 1297 1296 1296 1296 1296 1297 1298 1299 1301 1303 1305 1307 1310 1314 1317 1320 1323 1325
1456 1457 1457 1457 1456 1456 1455 1454 1453 1453 1452 1452 1451 1449 1448 1446 1445 1444 1442 1440 1438 1436 1433 1431 1428 1425 1423 1421 1418 1415 1412 1408 1405 1401 1397 1394 1390 1387 1383 1380 1377 1373 1369 1365 1360 1356 1351 1346 1342 1338 1334 1330 1327 1323 1320 1317 1314 1311 1308 1306 1303 1301 1300 1299 1298 1297 1296 1296 1295 1295 1295 1296 1296 1297 1299 1301 1303 1305 1308 1311 1315 1317 1320 1323 1326
1453 1453 1453 1453 1453 1452 1451 1450 1450 1449 1449 1448 1447 1446 1445 1443 1442 1441 1439 1437 1436 1434 1431 1429 1426 1423 1420 1418 1415 1412 1409 1406 1403 1399 1396 1393 1389 1386 1382 1379 1376 1372 1368 1364 1360 1355 1351 1346 1342 1338 1334 1330 1327 1324 1320 1317 1314 1311 1308 1305 1302 1300 1299 1298 1297 1296 1296 1295 1295 1295 1295 1295 1296 1297 1299 1301 1303 1305 1309 1312 1315 1318 1321 1324 1327
1450 1450 1450 1450 1449 1449 1448 1447 1446 1446 1445 1445 1444 1443 1442 1441 1440 1438 1437 1435 1433 1431 1430 1427 1424 1421 1418 1416 1413 1410 1407 1404 1401 1398 1395 1392 1388 1385 1381 1378 1375 1371 1367 1363 1359 1355 1350 1346 1342 1338 1334 1331 1328 1324 1321 1317 1314 1310 1307 1304 1302 1300 1298 1297 1296 1295 1295 1295 1294 1295 1295 1296 1296 1297 1299 1301 1304 1306 1309 1313 1316 1319 1322 1325 1328
1446 1446 1446 1446 1446 1445 1444 1443 1443 1442 1442 1441 1441 1440 1439 1438 1437 1435 1434 1432 1430 1429 1427 1425 1422 1420 1417 1414 1412 1409 1406 1403 1400 1396 1394 1391 1388 1384 1381 1377 1374 1370 1367 1363 1358 1354 1350 1347 1342 1338 1334 1331 1328 1325 1322 1318 1314 1310 1307 1304 1302 1300 1298 1297 1296 1295 1294 1294 1294 1294 1295 1296 1297 1298 1300 1302 1304 1307 1311 1315 1318 1320 1323 1326 1328
1443 1443 1443 1442 1442 1441 1441 1440 1440 1439 1439 1438 1437 1436 1436 1435 1434 1433 1431 1430 1428 1426 1424 1422 1420 1418 1415 1413 1410 1407 1404 1402 1398 1395 1392 1390 1387 1384 1380 1376 1373 1370 1367 1363 1359 1355 1351 1348 1344 1339 1336 1333 1329 1326 1322 1319 1315 1311 1308 1305 1302 1300 1298 1297 1296 1295 1294 1294 1294 1295 1295 1296 1297 1299 1301 1303 1305 1308 1312 1316 1319 1321 1324 1326 1328
1439 1439 1439 1439 1438 1438 1438 1438 1437 1436 1435 1434 1434 1433 1432 1432 1431 1430 1428 1427 1426 1424 1422 1420 1418 1416 1413 1411 1408 1406 1403 1400 1398 1395 1392 1389 1386 1383 1380 1376 1373 1369 1366 1363 1360 1356 1352 1349 1345 1341 1338 1334 1331 1328 1324 1320 1317 1314 1311 1307 1304 1301 1299 1297 1296 1295 1295 1295 1295 1295 1296 1297 1299 1300 1302 1304 1307 1310 1314 1317 1319 1322 1324 1327 1329
1436 1436 1436 1436 1436 1436 1435 1435 1434 1433 1432 1432 1431 1430 1429 1429 1428 1427 1426 1424 1423 1421 1420 1418 1416 1414 1411 1409 1406 1404 1401 1399 1396 1394 1391 1388 1385 1382 1379 1376 1373 1369 1366 1363 1360 1356 1353 1350 1347 1344 1340 1337 1333 1329 1326 1322 1320 1317 1314 1310 1307 1304 1301 1299 1298 1297 1297 1297 1297 1298 1298 1299 1301 1302 1304 1306 1309 1312 1316 1318 1320 1322 1325 1327 1328
1432 1432 1433 1433 1433 1433 1432 1432 1432 1431 1430 1429 1428 1427 1427 1426 1425 1424 1423 1421 1420 1419 1417 1415 1413 1412 1409 1407 1404 1402 1399 1397 1395 1392 1389 1386 1384 1381 1378 1375 1372 1369 1366 1363 1359 1356 1353 1351 1348 1345 1342 1339 1336 1332 1329 1325 1322 1319 1317 1314 1311 1308 1306 1304 1303 1302 1301 1301 1301 1301 1301 1302 1303 1304 1306 1308 1312 1315 1318 1320 1322 1324 1326 1327 1328
1429 1429 1430 1430 1430 1430 1430 1429 1429 1428 1428 1427 1426 1425 1424 1423 1422 1421 1420 1418 1417 1416 1414 1413 1411 1409 1407 1405 1402 1400 1397 1395 1393 1390 1388 1385 1382 1379 1376 1374 1371 1368 1365 1362 1359 1357 1354 1351 1348 1345 1343 1340 1337 1335 1332 1328 1325 1323 1320 1318 1315 1313 1310 1308 1307 1306 1305 1305 1305 1305 1305 1305 1306 1308 1309 1312 1315 1318 1320 1322 1323 1325 1326 1328 1329